Back to catalog

FLOCK 4H 6

AliveScienceSSO
NORAD 66709·PAYLOAD·🇺🇸 United States

Launched Nov 28, 2025 from Vandenberg Space Force Base

Loading…

Next Passes (next 24 hours)

TLE

FreshSource: Space-Track

Epoch: Sep 13, 2026, 04:28 UTC

1 66709U 25276AV  26256.18618707  .00003104  00000-0  14225-3 0  9994
2 66709  97.4159 328.5845 0003937  48.5580 311.5993 15.21203380 43803

Track FLOCK 4H 6 in real time with AllMySat

Download on the App Store